Regional Weather Roundup
Issued by NWS Upton, NY

Home | Current Version | Previous Version | Text Only | Print | Product List | Glossary On
Versions: 1 2 3 4 5 6 7 8 9 10 11 12 13 14 15 16 17 18 19 20 21 22 23 24 25 26 27
000
ASUS41 KOKX 301105
RWROKX

REGIONAL WEATHER ROUNDUP
NATIONAL WEATHER SERVICE NEW YORK NY
700 AM EDT MON MAY 30 2016

NOTE: "FAIR" INDICATES FEW OR NO CLOUDS BELOW 12,000 FEET WITH NO
SIGNIFICANT WEATHER AND/OR OBSTRUCTIONS TO VISIBILITY.

NYZ071-072-176-178-NJZ106-104-301200-
NEW YORK CITY METRO AREA


CITY           SKY/WX    TMP DP  RH WIND       PRES   REMARKS
CENTRAL PARK   LGT RAIN  70  68  93 CALM      30.01F FOG
LAGUARDIA APRT LGT RAIN  71  71 100 S6        29.98S
KENNEDY INTL   RAIN      65  63  93 SW7       30.00S VSB 1/2
NEWARK/LIBERTY CLOUDY    70  69  97 CALM      29.98F
BRNX BOT. GARD   N/A     68  66  94 SE3       29.99F
TETERBORO      LGT RAIN  68  64  87 N3        29.97F FOG
$$

NYZ177-179-078>081-301200-
LONG ISLAND NEW YORK

CITY           SKY/WX    TMP DP  RH WIND       PRES   REMARKS
FARMINGDALE    FOG       67  66  97 SW6       30.00S VSB 1/4
ISLIP          FOG       67  66  97 SW12      30.00F VSB 1/2
SHIRLEY        LGT RAIN  68  67  96 S9        30.00F
RIVERHEAD        N/A     68  68 100 W2        29.99F
WESTHAMPTON    LGT RAIN  66  65  96 SW10G21   30.02S FOG
EAST HAMPTON   LGT RAIN  64  64  99 SW8G17    30.01S
MONTAUK POINT    N/A     63  63 100 S9G20     30.02S
$$

NYZ052-065-067-301200-
HUDSON VALLEY

CITY           SKY/WX    TMP DP  RH WIND       PRES   REMARKS
WHITE PLAINS   LGT RAIN  68  67  96 CALM      29.99S FOG
NEWBURGH       LGT RAIN  64  64 100 CALM      30.02F FOG
MONTGOMERY     RAIN      64  63  96 SW3       30.01F FOG
POUGHKEEPSIE   LGT RAIN  65  62  90 CALM      30.00S FOG
ALBANY         LGT RAIN  68  64  87 S9        29.97S
$$

NJZ001-105-106-008-010-013-015-019>022-104-301200-
NEW JERSEY

CITY           SKY/WX    TMP DP  RH WIND       PRES   REMARKS
NEWARK/LIBERTY CLOUDY    70  69  97 CALM      29.98F
TETERBORO      LGT RAIN  68  64  87 N3        29.97F FOG
CALDWELL       CLOUDY    69  66  90 CALM      30.00S
MORRISTOWN     CLOUDY    68  66  94 CALM      30.00S
SOMERVILLE     CLOUDY    68  66  93 NW3       29.99R
SUSSEX         LGT RAIN  64  62  93 CALM      30.02R
ANDOVER          N/A     64  62  93 VRB3      30.02R
TRENTON        CLOUDY    67  65  93 NW3       30.00S
MILLVILLE      CLOUDY    73  70  90 S5        30.00S
ATLANTIC CITY  CLOUDY    71  70  96 SW6       30.01S
WRIGHTSTOWN    RAIN      70  69  98 W3        29.98S
TOMS RIVER     CLOUDY   N/A N/A N/A S6        30.00S
BELMAR         LGT RAIN  71  70  96 SW7       30.01S FOG
$$

PAZ047>061-062-071-301200-
EASTERN PENNSYLVANIA

CITY           SKY/WX    TMP DP  RH WIND       PRES   REMARKS
PHILADELPHIA   CLOUDY    72  68  87 W6        30.01S
ALLENTOWN      CLOUDY    67  64  90 CALM      30.02R
SCRANTON       CLOUDY    63  62  97 CALM      30.03R FOG
$$

CTZ002-004>006-009-010-012-RIZ004-006-007-MAZ004-011-015-301200-
SOUTHERN NEW ENGLAND
 IN CT

CITY           SKY/WX    TMP DP  RH WIND       PRES   REMARKS
BRADLEY INTL   RAIN      63  61  93 NW3       29.99F FOG
HARTFORD       LGT RAIN  70  67  90 S5        29.99F FOG
DANBURY        LGT RAIN  66  64  93 CALM      30.01F
WTRBRY/OXFORD  LGT RAIN  64  63  94 S3        30.01F FOG
BRIDGEPORT     LGT RAIN  66  64  93 E5        29.99F
MERIDEN        LGT RAIN  69  66  90 CALM      29.99F
NEW HAVEN      LGT RAIN  65  64  97 E3        29.99F FOG
CHESTER        LGT RAIN  64  64 100 CALM      30.01S
GROTON         LGT RAIN  63  63 100 SE7       30.01S FOG
WILLIMANTIC    HVY RAIN  64  60  87 NE5       30.01F FOG

 IN RI

CITY           SKY/WX    TMP DP  RH WIND       PRES   REMARKS
PROVIDENCE     HVY RAIN  57  56  96 NE8       30.02F VSB 1
BLOCK ISLAND   LGT RAIN  64  64 100 S17       30.01F VSB 1
WESTERLY       LGT RAIN  63  60  90 VRB3      30.03S VSB 1/2

 IN MA

CITY           SKY/WX    TMP DP  RH WIND       PRES   REMARKS
BOSTON         HVY RAIN  54  52  93 E3        30.04F FOG
WORCESTER      LGT RAIN  55  53  93 CALM      30.03S
WESTFIELD      LGT RAIN  61  59  93 N3        29.99F FOG
PROVINCETOWN   LGT RAIN  57  57 100 CALM      30.03F VSB 1/2
NANTUCKET      LGT RAIN  62  60  93 S10       30.04R VSB 1/4
$$

ANZ330-335-338-340-345-350-353-355-301200-
COASTAL MARINE OBSERVATIONS


STATION/POSITION TIME  SKY/WX   TEMP    WIND        PRES    VSBY  WAVE
                                AIR SEA DIR/SP/G                  HT/PER
                 (UTC)          (F)     (DEG/KT/KT) (MB)    (MI)  (FT/S)
NY HARB ENTRANCE 0950            61 58  190/ 10/ 12 1015.3          2/ 8
20S FIRE ISLAND  0950            63 61  190/ 14/ 16 1015.6          3/ 8
GREAT SOUTH BAY  1015            67 71  230/ 14/ 17   N/A
23 SSW MONTAUK P 0950            62 59  200/ 12/ 14 1015.9          2/ 8
15 E BARNEGAT LI 1022               61                N/A           3/ 8
HUDSON CANYON    0950            63 58              1017.0          3/ 7
KINGS POINT      1000            67 59              1015.3
EXECUTION ROCKS  NOT AVBL
CENTRAL LI SOUND 1000            63      60/  6/  8   N/A           0
EASTERN LI SOUND 1000            58 54   20/  6/  8   N/A
ROBBINS REEF     1006            68     190/  5/  5 1014.9
$$


>>>>>>>>>>>>>>>>>>>>>>>>>>>> KEY <<<<<<<<<<<<<<<<<<<<<<<<<<<
>                                                          <
>     SKY/WX - SKY CONDITION/PRESENT WEATHER               <
>     TMP    - TEMPERATURE IN FAHRENHEIT                   <
>     DP     - DEWPOINT IN FAHRENHEIT                      <
>     RH     - RELATIVE HUMIDITY IN PERCENT                <
>     WIND   - DIRECTION AND SPEED IN MPH                  <
>     PRES   - MEAN SEA LEVEL PRESSURE IN INCHES OF HG     <
>     WCI    - WIND CHILL INDEX                            <
>     VSB    - VISIBILITY IN MILES                         <
>     HX     - HEAT INDEX                                  <
>     TC     - TEMPERATURE IN CELSIUS                      <
>     VRB    - VARIABLE WIND DIRECTION                     <
>                                                          <
>>>>>>>>>>>>>>>>>>>>>>>>>>>> KEY <<<<<<<<<<<<<<<<<<<<<<<<<<<






USA.gov is the U.S. government's official web portal to all federal, state and local government web resources and services.